Le nostre stazioni meteo in Italia

Pubblicità
Il mio iltempo24.it
Grottaglie, Italia (16324): Temperatura & dewpoint: 18.06.2018 22:00:00 - 24.06.2018 22:00:00 (CEST)Grottaglie, Italia (16324): velocità del vento: 18.06.2018 22:00:00 - 24.06.2018 22:00:00 (CEST)Grottaglie, Italia (16324): direzione del vento: 18.06.2018 22:00:00 - 24.06.2018 22:00:00 (CEST)Grottaglie, Italia (16324): visibility: 18.06.2018 22:00:00 - 24.06.2018 22:00:00 (CEST)
Data & Tempo tt [°C] td [°C] ff [km/h] ff [kn] dd vv [km]
24.06.2018 22:00:00 - - - - - -
24.06.2018 21:00:00 - - - - - -
24.06.2018 20:00:00 22,0 8,0 16 9 NNE 10
24.06.2018 19:00:00 23,0 7,0 22 12 N 10
24.06.2018 18:00:00 25,0 4,0 26 14 N 10
24.06.2018 17:00:00 26,0 6,0 26 14 N 10
24.06.2018 16:00:00 26,0 6,0 24 13 N 10
24.06.2018 15:00:00 26,0 6,0 18 10 NNO 10
24.06.2018 14:00:00 26,0 8,0 18 10 N 10
24.06.2018 13:00:00 26,0 8,0 18 10 N 10
24.06.2018 12:00:00 25,0 8,0 21 11 N 10
24.06.2018 11:00:00 25,0 9,0 18 10 N 10
24.06.2018 10:00:00 24,0 9,0 21 11 N 10
24.06.2018 09:00:00 23,0 11,0 18 10 NNO 10
24.06.2018 08:00:00 22,0 12,0 16 9 NO 10
24.06.2018 07:00:00 - - - - - -
24.06.2018 06:00:00 - - - - - -
24.06.2018 05:00:00 - - - - - -
24.06.2018 04:00:00 - - - - - -
24.06.2018 03:00:00 - - - - - -
24.06.2018 02:00:00 - - - - - -
24.06.2018 01:00:00 - - - - - -
24.06.2018 00:00:00 - - - - - -
23.06.2018 23:00:00 - - - - - -
23.06.2018 22:00:00 - - - - - -
23.06.2018 21:00:00 - - - - - -
23.06.2018 20:00:00 22,0 10,0 21 11 N 10
23.06.2018 19:00:00 24,0 10,0 24 13 N 10
23.06.2018 18:00:00 25,0 10,0 24 13 N 10
23.06.2018 17:00:00 26,0 9,0 24 13 NNE 10
23.06.2018 16:00:00 26,0 9,0 24 13 NNE 10
23.06.2018 15:00:00 27,0 10,0 24 13 N 10
23.06.2018 14:00:00 26,0 10,0 22 12 N 10
23.06.2018 13:00:00 25,0 14,0 26 14 NNE 10
23.06.2018 12:00:00 23,0 16,0 26 14 N 10
23.06.2018 11:00:00 24,0 16,0 22 12 NE 10
23.06.2018 10:00:00 23,0 16,0 28 15 N 10
23.06.2018 09:00:00 24,0 15,0 26 14 N 10
23.06.2018 08:00:00 23,0 16,0 18 10 NNO 10
23.06.2018 07:00:00 - - - - - -
23.06.2018 06:00:00 - - - - - -
23.06.2018 05:00:00 - - - - - -
23.06.2018 04:00:00 - - - - - -
23.06.2018 03:00:00 - - - - - -
23.06.2018 02:00:00 - - - - - -
23.06.2018 01:00:00 - - - - - -
23.06.2018 00:00:00 - - - - - -
22.06.2018 23:00:00 - - - - - -
22.06.2018 22:00:00 - - - - - -
22.06.2018 21:00:00 - - - - - -
22.06.2018 20:00:00 26,0 18,0 13 7 S 10
22.06.2018 19:00:00 27,0 17,0 16 9 S 10
22.06.2018 18:00:00 29,0 15,0 21 11 S 10
22.06.2018 17:00:00 30,0 15,0 18 10 SSO 10
22.06.2018 16:00:00 31,0 13,0 15 8 SSO 10
22.06.2018 15:00:00 30,0 12,0 13 7 SO 10
22.06.2018 14:00:00 30,0 13,0 11 6 OSO 10
22.06.2018 13:00:00 29,0 14,0 11 6 SO 10
22.06.2018 12:00:00 28,0 13,0 13 7 SO 10
22.06.2018 11:00:00 29,0 14,0 13 7 O 10
22.06.2018 10:00:00 27,0 18,0 8 4 OSO 10
22.06.2018 09:00:00 26,0 19,0 5 3 OSO 10
22.06.2018 08:00:00 24,0 19,0 4 2 O 10
22.06.2018 07:00:00 - - - - - -
22.06.2018 06:00:00 - - - - - -
22.06.2018 05:00:00 - - - - - -
22.06.2018 04:00:00 - - - - - -
22.06.2018 03:00:00 - - - - - -
22.06.2018 02:00:00 - - - - - -
22.06.2018 01:00:00 - - - - - -
22.06.2018 00:00:00 - - - - - -
21.06.2018 23:00:00 - - - - - -
21.06.2018 22:00:00 - - - - - -
21.06.2018 21:00:00 - - - - - -
21.06.2018 20:00:00 27,0 15,0 11 6 OSO 10
21.06.2018 19:00:00 29,0 14,0 9 5 SSO 10
21.06.2018 18:00:00 30,0 16,0 8 4 N 10
21.06.2018 17:00:00 29,0 16,0 8 4 N 10
21.06.2018 16:00:00 29,0 17,0 5 3 N 10
21.06.2018 15:00:00 28,0 17,0 13 7 NNO 10
21.06.2018 14:00:00 26,0 19,0 0 0 N 10
21.06.2018 13:00:00 28,0 18,0 9 5 - 10
21.06.2018 12:00:00 29,0 17,0 8 4 OSO 10
21.06.2018 11:00:00 28,0 16,0 8 4 SO 10
21.06.2018 10:00:00 28,0 16,0 4 2 ONO 10
21.06.2018 09:00:00 25,0 18,0 0 0 N 10
21.06.2018 08:00:00 24,0 19,0 0 0 N 10
21.06.2018 07:00:00 - - - - - -
21.06.2018 06:00:00 - - - - - -
21.06.2018 05:00:00 - - - - - -
21.06.2018 04:00:00 - - - - - -
21.06.2018 03:00:00 - - - - - -
21.06.2018 02:00:00 - - - - - -
21.06.2018 01:00:00 - - - - - -
21.06.2018 00:00:00 - - - - - -
20.06.2018 23:00:00 - - - - - -
20.06.2018 22:00:00 21,0 19,0 9 5 NNE 10
20.06.2018 21:00:00 21,0 20,0 8 4 ENE 10
20.06.2018 20:00:00 23,0 21,0 4 2 O 10
20.06.2018 19:00:00 23,0 20,0 4 2 NE 10
20.06.2018 18:00:00 23,0 20,0 0 0 N 10
20.06.2018 17:00:00 20,0 18,0 9 5 NO 10
20.06.2018 16:00:00 19,0 17,0 18 10 ENE 8
20.06.2018 15:00:00 21,0 18,0 39 21 N 8
20.06.2018 14:00:00 23,0 17,0 18 10 SO 10
20.06.2018 13:00:00 30,0 16,0 11 6 SE 10
20.06.2018 12:00:00 30,0 16,0 8 4 E 10
20.06.2018 11:00:00 29,0 17,0 9 5 E 10
20.06.2018 10:00:00 28,0 18,0 13 7 ENE 10
20.06.2018 09:00:00 27,0 18,0 15 8 NE 10
20.06.2018 08:00:00 25,0 19,0 11 6 N 10
20.06.2018 07:00:00 - - - - - -
20.06.2018 06:00:00 - - - - - -
20.06.2018 05:00:00 - - - - - -
20.06.2018 04:00:00 - - - - - -
20.06.2018 03:00:00 - - - - - -
20.06.2018 02:00:00 - - - - - -
20.06.2018 01:00:00 - - - - - -
20.06.2018 00:00:00 - - - - - -
19.06.2018 23:00:00 - - - - - -
19.06.2018 22:00:00 - - - - - -
19.06.2018 21:00:00 - - - - - -
19.06.2018 20:00:00 27,0 14,0 21 11 NNE 10
19.06.2018 19:00:00 28,0 13,0 24 13 N 10
19.06.2018 18:00:00 29,0 16,0 22 12 NNE 10
19.06.2018 17:00:00 29,0 15,0 24 13 N 10
19.06.2018 16:00:00 29,0 13,0 21 11 N 10
19.06.2018 15:00:00 - - - - - -
19.06.2018 14:00:00 30,0 13,0 24 13 N 10
19.06.2018 13:00:00 30,0 14,0 26 14 NNE 10
19.06.2018 12:00:00 30,0 13,0 22 12 NNE 10
19.06.2018 11:00:00 29,0 15,0 24 13 N 10
19.06.2018 10:00:00 28,0 16,0 26 14 NE 10
19.06.2018 09:00:00 27,0 16,0 28 15 NE 10
19.06.2018 08:00:00 27,0 18,0 21 11 NE 10
19.06.2018 07:00:00 - - - - - -
19.06.2018 06:00:00 - - - - - -
19.06.2018 05:00:00 - - - - - -
19.06.2018 04:00:00 - - - - - -
19.06.2018 03:00:00 - - - - - -
19.06.2018 02:00:00 - - - - - -
19.06.2018 01:00:00 - - - - - -
19.06.2018 00:00:00 - - - - - -
18.06.2018 23:00:00 - - - - - -
18.06.2018 22:00:00 - - - - - -

tt = Temperatura
td = dewpoint
ff = velocità del vento
dd = direzione del vento
vv = visibility

Stazioni seguenti

WeatherPro
AMSI
MeteoEarth